Flag for Romania Weather past 2 weeks in Timișoara, Romania

Now
45 °F

Sunny.


Feels Like: 37 °F
Forecast: 33 / 47 °F
Wind: 16 mph from Northwest

Location: Timisoara Airport

Current Time: Apr 2, 2015 at 10:33:23 AM

Latest Report: Apr 2, 2015 at 10:00 AM


Visibility: 10 mi

Pressure: 30.01 "Hg

Humidity: 61%

Dew point: 32 °F

Location of TimișoaraLocation

Historic Weather in Timișoara — Graph

°F

Timișoara temperature yesterday

Maximum temperature yesterday: 55 °F (at 12:30 PM)
Minimum temperature yesterday: 37 °F (at 11:30 PM)
Average temperature yesterday: 48 °F

Past Weeks' High & Low Weather Summary

 TemperatureHumidityPressure
High72 °F (Mar 26, 2:30 PM)100% (Mar 20, 4:30 AM)30.33 "Hg (Mar 20, 4:30 AM)
Low25 °F (Mar 21, 6:00 AM)24% (Mar 20, 3:30 PM)29.56 "Hg (Mar 30, 3:30 PM)
Average48 °F66%29.93 "Hg
* Reported Mar 18 8:00 AM — Apr 2 9:30 AM, Timișoara, Weather by CustomWeather, © 2015

Note: Actual official high and low records may vary slightly from our data, if they occured in-between our weather recording intervals... More about our weather records

Advertising

Timișoara weather history for previous 24 hours

 ConditionsComfort  
Time TempWeatherWind HumidityBarometerVisibility
9:30 AM
Thu, Apr 2
41 °FSunny.16 mph70%30.01 "Hg10 mi
9:00 AM39 °FSunny.13 mph75%30.01 "Hg10 mi
8:30 AM37 °FSunny.13 mph81%29.98 "Hg10 mi
8:00 AM36 °FClear.8 mph81%29.98 "Hg10 mi
7:30 AM34 °FClear.7 mph87%29.98 "Hg10 mi
7:00 AM36 °FPassing clouds.8 mph81%29.98 "HgN/A
6:30 AM36 °FPassing clouds.9 mph87%29.98 "HgN/A
5:30 AM36 °FClear.9 mph87%29.98 "Hg10 mi
5:00 AM36 °FClear.12 mph87%29.98 "Hg10 mi
4:30 AM36 °FClear.10 mph87%29.98 "Hg10 mi
4:00 AM34 °FClear.9 mph93%29.98 "Hg10 mi
3:30 AM34 °FClear.9 mph93%29.98 "Hg10 mi
3:00 AM36 °FClear.8 mph87%29.98 "Hg10 mi
2:30 AM36 °FClear.9 mph87%29.98 "Hg10 mi
2:00 AM36 °FClear.10 mph87%29.95 "Hg10 mi
1:30 AM36 °FClear.9 mph87%29.95 "Hg10 mi
1:00 AM36 °FClear.9 mph87%29.95 "Hg10 mi
12:30 AM36 °FClear.6 mph87%29.95 "Hg10 mi
12:00 AM36 °FClear.5 mph87%29.95 "Hg10 mi
11:30 PM
Wed, Apr 1
37 °FClear.3 mph81%29.95 "Hg10 mi
11:00 PM39 °FClear.9 mph81%29.95 "Hg10 mi
10:30 PM41 °FClear.6 mph66%29.95 "Hg10 mi
10:00 PM41 °FPassing clouds.7 mph70%29.92 "HgN/A
9:30 PM41 °FClear.2 mph76%29.92 "Hg10 mi
9:00 PM45 °FSunny.8 mph66%29.89 "Hg10 mi
8:30 PM43 °FSunny.5 mph71%29.89 "Hg10 mi
8:00 PM45 °FSunny.7 mph66%29.86 "Hg10 mi
7:30 PM48 °FSunny.10 mph54%29.86 "Hg10 mi
7:00 PM48 °FSunny.10 mph54%29.86 "Hg10 mi
6:30 PM48 °FSunny.15 mph46%29.86 "Hg10 mi
6:00 PM52 °FSunny.17 mph44%29.83 "Hg10 mi
5:30 PM52 °FPassing clouds.17 mph41%29.83 "HgN/A
5:00 PM52 °FPassing clouds.14 mph41%29.83 "HgN/A
4:30 PM52 °FPassing clouds.16 mph44%29.83 "HgN/A
4:00 PM52 °FPassing clouds.17 mph47%29.83 "HgN/A
3:30 PM54 °FPassing clouds.15 mph47%29.80 "HgN/A
3:00 PM54 °FPassing clouds.9 mph47%29.80 "HgN/A
2:30 PM54 °FPartly sunny.16 mph44%29.80 "HgN/A
2:00 PM54 °FScattered clouds.17 mph47%29.80 "HgN/A
1:30 PM55 °FScattered clouds.13 mph47%29.80 "HgN/A
1:00 PM55 °FScattered clouds.17 mph51%29.83 "HgN/A
12:30 PM55 °FScattered clouds.15 mph47%29.80 "HgN/A
12:00 PM54 °FScattered clouds.15 mph44%29.83 "HgN/A
11:30 AM54 °FPassing clouds.13 mph47%29.83 "HgN/A
11:00 AM50 °FPassing clouds.14 mph58%29.83 "HgN/A
10:30 AM50 °FPassing clouds.8 mph67%29.83 "HgN/A
10:00 AM48 °FSunny.12 mph71%29.83 "Hg10 mi
Weather by CustomWeather, © 2015

See weather overviewHow to use our weather pages